星链-31776 (STARLINK-31776 )

导读

STARLINK-31776是美国SpaceX星链星座的卫星,于北京时间2024年4月28日发射升空,属于星链互联网星座扩容任务的一部分。星链星座计划通过数万颗低轨卫星,为全球提供高速低延迟的宽带互联网服务,该卫星入轨后将参与组网,进一步完善星链系统的全球覆盖能力,提升服务稳定性与容量。

Basic Information
目录编号:
59603
目录名称:
STARLINK-31776
国际标识:
2024-080C
轨道中心:
EARTH
卫星名称:
星链-31776
卫星全名:
星链-31776 (STARLINK-31776 )
卫星状态:
在轨 (已飞行867 天)
发射日期:
2024-04-28 UTC
国别 :
美国 (US)
星等 :
--
This satellite is enrolled in the Space Conjunction Data Service (SCDS) and the current flight risk assessment level is: No High Risk
Orbit Information
数据来源 国际轨道数据
星历时间: 2026-09-11T21:03:40+0800
15小时前
查看轨道信息
半长轴: 6861.207km
偏心率: 0.0001143
轨道倾角: 43.004°
近地点辐角 269.821°
升交点赤经 72.022°
平近点角 90.251°
近地点: 482.285km
远地点: 483.855km
周期: 94.267分钟
每日圈数: 15.275732
Detailed Information
固有亮度:
5
最大亮度:
1.5
卫星平台:
Starlink v2.0 mini
覆盖范围:
全球
运营商:
太空探索技术公司
运营商所在国:
美国
制造商(研发单位):
太空探索技术公司
制造商所在国:
美国
使用方式:
暂无
Satellite Introduction
星链(Starlink)计划是由太空探索技术公司(SpaceX)提出的一个巨型低轨卫星互联网星座项目,计划在2019年至2024年间在太空搭建由约1.2万颗卫星组成的“星链”网络,其中1584颗将部署在地球上空550千米处的近地轨道,并从2020年开始工作。该卫星仍在工作。
2D Orbit Map
3D Orbit Map
Orbit Altitude Analysis Chart
Orbit Inclination Analysis Chart
Orbit Comprehensive Analysis Chart
View Comprehensive Chart
Conjunction Data List
Event ID Objects TCA Miss Dist (km) Collision Risk Probability Collision Risk Index (CRI) Action
CDM_260913-044205-960306-728921
2026-09-13T
04:42:00+0000
1.008 km
极远距离
2.200556E-5 中风险 0.62
CDM_260910-054705-960306-436221
2026-09-10T
05:47:58+0000
2.497 km
极远距离
1.580948E-6 低风险 0.39
Miss Distance Evolution Trend with All Objects
Collision Probability Evolution Trend with All Objects